sat.trackr.live / text

‹ back to catalog

YAOGAN-27

NORAD 40878 · 2015-040A

PAYLOAD ACTIVE UNKNOWN

§ Identity

Operator
Country
PRC
Launch date
2015-08-27
Launch site
TAISC
Launch vehicle
Mass (kg)
RCS (m²)
3.09

Purposes: earth_obs

External: N2YO · Heavens-Above · Gunter

§ Orbital elements

Epoch: 2026-09-20T04:57:13.088736Z

Period
109.42 min
Inclination
100.1281°
Eccentricity
0.0008381
Mean motion
13.16074180 rev/d
Perigee alt
1,193.4 km
Apogee alt
1,206.1 km
Semi-major
7,577.9 km
B*
-5.6005e-4
RAAN
245.5060°
Arg perigee
0.6665°
Mean anomaly
359.4458°
Rev number
53,016

§ Raw data

YAOGAN-271 40878U 15040A   26263.20640149 -.00000255  00000+0 -56005-3 0  99942 40878 100.1281 245.5060 0008381   0.6665 359.4458 13.16074180530161

JSON: /api/v1/satellites/40878 · /tle

For live sub-satellite position, see the globe view (requires WebGL).

§ Visibility from observer

Set your observer location to see the next 7 days of passes ≥ 10°. The values pass through the URL so the page stays shareable.

No JS? Fill the form by hand. The geolocation button needs JavaScript.